Location: Altavilla Irpina
(41.0000°N, 14.7833°E)
Time: 10:22:08
(UTC+00:00)

USA 245 - Pass Details

Date: 19 May 2025
Orbit: 292 x 1030 km, 97.9° (Epoch: 02 June)

Event Time Altitude Azimuth Distance (km) Brightness Sun altitude
Exits shadow 20:37:31 33° 207° (SSW) 1,042 4.4 -20.9°
Maximum altitude 20:39:06 50° 263° (W) 834 4.3 -21.1°
Drops below altitude 10° 20:44:02 10° 338° (NNW) 2,321 7.6 -21.6°
Sets 20:46:42 0° 344° (NNW) 3,377 8.6 -21.9°
